Tracking 29892 objects as of 21-Nov-2024
HD Live streaming from Space Station
objects crossing your sky now

STARLINK-30403

Track STARLINK-30403 now!
10-day predictions
STARLINK-30403 is classified as:


NORAD ID: 57813
Int'l Code: 2023-138F
Perigee: 565.5 km
Apogee: 567.0 km
Inclination: 43.0 °
Period: 95.8 minutes
Semi major axis: 6937 km
RCS: Unknown
Launch date: September 9, 2023
Source: United States (US)
Launch site: AIR FORCE EASTERN TEST RANGE (AFETR)
Your satellite tracking list
Your tracking list is empty




NASA's NSSDC Master Catalog

Two Line Element Set (TLE):
1 57813U 23138F   24325.96622266 -.00000825  00000-0 -46042-4 0  9993
2 57813  43.0001 290.3302 0001062 264.3954  95.6767 15.02537314 67346
Source of the keplerian elements: AFSPC